Home   Weather   Doha   Past weeks
Flag for Qatar

Past Weather in Doha, Qatar — Yesterday and Last 2 Weeks

Now
79 °F

Clear.


Feels Like: 80 °F
Forecast: 94 / 76 °F
Wind: 5 mph from Southwest

Location: Doha International Airport

Current Time: Apr 8, 2020 at 2:01:31 am

Latest Report: Apr 8, 2020 at 1:30 am


Visibility: 10 mi

Pressure: 29.80 "Hg

Humidity: 51%

Dew Point: 59 °F

Location of DohaLocation

Past Weather in Doha — Graph

°F

Doha Temperature Yesterday

Maximum temperature yesterday: 95 °F (at 11:00 am)
Minimum temperature yesterday: 72 °F (at 4:00 am)
Average temperature yesterday: 83 °F

High & Low Weather Summary for the Past Weeks

 TemperatureHumidityPressure
High95 °F (Apr 7, 11:00 am)83% (Apr 3, 4:00 am)30.04 "Hg (Apr 3, 4:00 am)
Low63 °F (Mar 24, 4:30 am)13% (Apr 6, 12:30 pm)29.56 "Hg (Mar 29, 2:00 pm)
Average78 °F48%29.88 "Hg
* Reported Mar 24 1:00 am — Apr 8 1:00 am, Doha. Weather by CustomWeather, © 2020

Note: Actual official high and low records may vary slightly from our data, if they occured in-between our weather recording intervals... More about our weather records

Doha Weather History for the Previous 24 Hours

Scroll right to see more
 ConditionsComfort  
Time TempWeatherWind HumidityBarometerVisibility
1:00 am
Wed, Apr 8
79 °FClear.3 mph51%29.80 "Hg10 mi
12:30 am77 °FClear.3 mph54%29.80 "Hg10 mi
12:00 am79 °FPassing clouds.3 mph48%29.83 "HgN/A
11:30 pm
Tue, Apr 7
79 °FPassing clouds.3 mph51%29.83 "HgN/A
11:00 pm77 °FClear.3 mph54%29.83 "Hg10 mi
10:30 pm77 °FClear.2 mph54%29.83 "Hg10 mi
10:00 pm77 °FPassing clouds.3 mph54%29.83 "HgN/A
9:30 pm79 °FPassing clouds.5 mph51%29.83 "HgN/A
9:00 pm79 °FPassing clouds.5 mph51%29.83 "HgN/A
8:30 pm79 °FPassing clouds.6 mph51%29.83 "HgN/A
8:00 pm81 °FClear.6 mph45%29.83 "Hg10 mi
7:30 pm81 °FClear.6 mph39%29.83 "Hg10 mi
7:00 pm81 °FClear.7 mph42%29.83 "Hg10 mi
6:30 pm79 °FPassing clouds.5 mph45%29.83 "HgN/A
6:00 pm81 °FClear.6 mph42%29.83 "Hg10 mi
5:30 pm82 °FSunny.8 mph32%29.83 "Hg10 mi
5:00 pm82 °FSunny.10 mph35%29.80 "Hg10 mi
4:30 pm82 °FSunny.12 mph35%29.80 "Hg10 mi
4:00 pm86 °FSunny.10 mph25%29.83 "Hg10 mi
3:30 pm86 °FSunny.10 mph29%29.80 "Hg10 mi
3:00 pm84 °FSunny.12 mph31%29.83 "Hg10 mi
2:30 pm88 °FSunny.13 mph25%29.83 "Hg10 mi
2:00 pm88 °FSunny.13 mph31%29.83 "Hg10 mi
1:30 pm88 °FPassing clouds.13 mph35%29.83 "HgN/A
1:00 pm91 °FPassing clouds.9 mph28%29.86 "HgN/A
12:30 pm93 °FSunny.12 mph19%29.89 "Hg10 mi
12:00 pm93 °FSunny.8 mph17%29.89 "Hg10 mi
11:30 am95 °FPassing clouds.9 mph14%29.89 "HgN/A
11:00 am95 °FPassing clouds.6 mph13%29.92 "HgN/A
10:30 am93 °FPassing clouds.8 mph14%29.95 "HgN/A
10:00 am93 °FPassing clouds.6 mph15%29.95 "HgN/A
9:30 am91 °FPassing clouds.6 mph18%29.95 "HgN/A
9:00 am90 °FPassing clouds.5 mph18%29.95 "HgN/A
8:30 am90 °FSunny.3 mph14%29.95 "Hg10 mi
8:00 am88 °FPassing clouds.3 mph18%29.95 "HgN/A
7:30 am86 °FPassing clouds.3 mph15%29.95 "HgN/A
7:00 am79 °FSunny.3 mph26%29.92 "Hg10 mi
6:30 am77 °FSunny.2 mph26%29.89 "Hg10 mi
6:00 am73 °FSunny.No wind29%29.89 "Hg10 mi
5:30 am79 °FSunny.2 mph20%29.89 "Hg10 mi
5:00 am75 °FClear.2 mph34%29.89 "Hg10 mi
4:30 am73 °FClear.1 mph33%29.89 "Hg10 mi
4:00 am72 °FClear.1 mph29%29.89 "Hg10 mi
3:30 am75 °FClear.2 mph25%29.89 "Hg10 mi
3:00 am75 °FClear.2 mph24%29.89 "Hg10 mi
2:30 am77 °FPassing clouds.3 mph22%29.89 "HgN/A
2:00 am79 °FPassing clouds.6 mph21%29.89 "HgN/A
Weather by CustomWeather, © 2020

See weather overview

Advertising